Tracking 28052 objects as of 22-Sep-2023
HD Live streaming from Space Station
objects crossing your sky now

STARLINK-4457

Track STARLINK-4457 now!
10-day predictions


NORAD ID: 53663
Int'l Code: 2022-105R
Perigee: 568.2 km
Apogee: 572.0 km
Inclination: 97.7 °
Period: 95.9 minutes
Semi major axis: 6941 km
RCS: Unknown
Launch date: August 31, 2022
Source: United States (US)
Launch site: AIR FORCE WESTERN TEST RANGE (AFWTR)
Your satellite tracking list
Your tracking list is empty




NASA's NSSDC Master Catalog

Two Line Element Set (TLE):
1 53663U 22105R   23264.95090550  .00010368  00000-0  81025-3 0  9990
2 53663  97.6571 144.6458 0002693  86.3383 273.8149 15.01274235 58246
Source of the keplerian elements: AFSPC